This is the latest recevied weather packets stored in our database for station/object SP5QWJ. If no packets are shown the sender has not sent any weather packets the latest 10 day(s).
| Time | Temp. | Humidity | Pressure | Rain* | Wind** | Luminosity | Snow |
|---|---|---|---|---|---|---|---|
| 1778042266 | 12.78° C | 100% | 1004.5 hPa | - | - | - | - |
| 1778041355 | 12.22° C | 100% | 1004.6 hPa | - | - | - | - |
| 1778040446 | 12.22° C | 100% | 1004.6 hPa | - | - | - | - |
| 1778039531 | 12.22° C | 100% | 1004.8 hPa | - | - | - | - |
| 1778038619 | 12.22° C | 100% | 1004.7 hPa | - | - | - | - |
| 1778037709 | 12.22° C | 100% | 1004.7 hPa | - | - | - | - |
| 1778036798 | 12.22° C | 100% | 1004.8 hPa | - | - | - | - |
| 1778035886 | 11.67° C | 100% | 1004.8 hPa | - | - | - | - |
| 1778034975 | 12.22° C | 100% | 1004.9 hPa | - | - | - | - |
| 1778034063 | 12.22° C | 100% | 1005 hPa | - | - | - | - |
| 1778033151 | 12.78° C | 100% | 1005.2 hPa | - | - | - | - |
| 1778032238 | 12.78° C | 100% | 1005.1 hPa | - | - | - | - |
| 1778031327 | 12.78° C | 100% | 1005.2 hPa | - | - | - | - |
| 1778030415 | 13.33° C | 100% | 1005.2 hPa | - | - | - | - |
| 1778029504 | 13.33° C | 100% | 1005.2 hPa | - | - | - | - |
| 1778028593 | 13.89° C | 100% | 1005.3 hPa | - | - | - | - |
| 1778027682 | 14.44° C | 100% | 1005.1 hPa | - | - | - | - |
| 1778026769 | 14.44° C | 100% | 1005 hPa | - | - | - | - |
| 1778025857 | 14.44° C | 100% | 1004.9 hPa | - | - | - | - |
| 1778024945 | 15° C | 100% | 1004.9 hPa | - | - | - | - |
| 1778024033 | 15° C | 99% | 1004.9 hPa | - | - | - | - |
| 1778023121 | 15.56° C | 97% | 1005.1 hPa | - | - | - | - |
| 1778022209 | 15.56° C | 94% | 1005 hPa | - | - | - | - |
| 1778020398 | 16.67° C | 88% | 1005 hPa | - | - | - | - |
| 1778019499 | 17.22° C | 86% | 1004.9 hPa | - | - | - | - |
* Rain since midnight (hover to see other rain measurements)
** Current wind speed in m/s (hover to see current wind gust speed)